Location: Unspecified
(0.0000°N, 0.0000°E)
Time: 17:26:52
(UTC+00:00)

Tiros 8 - Visible Passes

Search period start: 15 May 2026 00:00
Search period end: 25 May 2026 00:00
Orbit: 638 x 664 km, 58.5° (Epoch: 15 May)

Date Brightness Start Highest point End Pass type
(mag) Time Alt. Az. Time Alt. Az. Time Alt. Az.
15 May 9.0 18:56:02 10° SW 19:00:46 69° WNW 19:05:29 10° NNE visible
16 May 12.1 05:31:18 10° NNE 05:33:24 13° ENE 05:35:30 10° E visible
16 May 11.5 19:24:48 10° WSW 19:28:11 19° WNW 19:31:34 10° NNW visible
18 May 11.3 18:38:05 10° WSW 18:41:56 24° WNW 18:45:47 10° N visible
19 May 10.5 05:10:23 10° N 05:14:36 35° ENE 05:18:49 10° SE visible
21 May 10.8 04:24:25 10° N 04:28:21 27° ENE 04:32:17 10° ESE visible
22 May 8.5 04:51:08 10° NNW 04:55:45 78° WSW 05:00:22 10° SSE visible
23 May 11.0 03:38:35 10° NNE 03:42:07 21° ENE 03:45:38 10° ESE visible
23 May 9.8 05:19:40 10° WNW 05:23:09 21° WSW 05:26:38 10° SSW visible
24 May 8.6 04:08:11 46° NNW 04:09:31 80° ENE 04:14:08 10° SSE visible
